Time,TemperatureF,DewpointF,PressureIn,WindDirection,WindDirectionDegrees,WindSpeedMPH,WindSpeedGustMPH,Humidity,HourlyPrecipIn,Conditions,Clouds,dailyrainin,SoftwareType,DateUTC
2013-03-03 00:02:00,28.0,20.0,30.21,NNW,338,0.0,-999.0,71,-99.99,,,-99.99,,2013-03-03 06:02:00,
2013-03-03 00:11:00,28.0,20.0,30.21,NNW,338,0.0,-999.0,71,-99.99,,,-99.99,,2013-03-03 06:11:00,
2013-03-03 00:21:00,27.0,19.0,30.21,NNW,338,0.0,-999.0,72,-99.99,,,-99.99,,2013-03-03 06:21:00,
2013-03-03 00:31:00,27.0,20.0,30.21,NNW,338,0.0,-999.0,73,-99.99,,,-99.99,,2013-03-03 06:31:00,
2013-03-03 00:42:00,27.0,20.0,30.21,NNW,338,0.0,-999.0,73,-99.99,,,-99.99,,2013-03-03 06:42:00,
2013-03-03 00:52:00,27.0,20.0,30.21,NNW,338,0.0,-999.0,74,-99.99,,,-99.99,,2013-03-03 06:52:00,
2013-03-03 01:01:00,27.0,20.0,30.21,NNW,338,0.0,-999.0,75,-99.99,,,-99.99,,2013-03-03 07:01:00,
2013-03-03 01:11:00,27.0,20.0,30.21,NNW,338,0.0,-999.0,75,-99.99,,,-99.99,,2013-03-03 07:11:00,
2013-03-03 01:21:00,26.0,19.0,30.20,NNW,338,0.0,-999.0,75,-99.99,,,-99.99,,2013-03-03 07:21:00,
2013-03-03 01:31:00,26.0,19.0,30.20,NNW,337,0.0,-999.0,75,-99.99,,,-99.99,,2013-03-03 07:31:00,
2013-03-03 01:42:00,26.0,19.0,30.20,NNW,337,0.0,-999.0,75,-99.99,,,-99.99,,2013-03-03 07:42:00,
2013-03-03 01:52:00,26.0,19.0,30.20,NNW,337,0.0,-999.0,75,-99.99,,,-99.99,,2013-03-03 07:52:00,
2013-03-03 02:01:00,27.0,20.0,30.20,NNW,337,0.0,-999.0,75,-99.99,,,-99.99,,2013-03-03 08:01:00,
2013-03-03 02:11:00,27.0,20.0,30.20,NNW,337,0.0,-999.0,75,-99.99,,,-99.99,,2013-03-03 08:11:00,
2013-03-03 02:21:00,27.0,20.0,30.20,NNW,327,0.0,-999.0,73,-99.99,,,-99.99,,2013-03-03 08:21:00,
2013-03-03 02:31:00,27.0,20.0,30.20,NNW,327,0.0,-999.0,73,-99.99,,,-99.99,,2013-03-03 08:31:00,
2013-03-03 02:41:00,27.0,20.0,30.20,NNW,327,0.0,-999.0,73,-99.99,,,-99.99,,2013-03-03 08:41:00,
2013-03-03 02:54:00,26.0,19.0,30.20,NW,326,0.0,-999.0,73,-99.99,,,-99.99,,2013-03-03 08:54:00,
2013-03-03 03:01:00,26.0,19.0,30.20,NNW,330,0.0,-999.0,73,-99.99,,,-99.99,,2013-03-03 09:01:00,
2013-03-03 03:11:00,26.0,19.0,30.20,NNW,330,0.0,-999.0,73,-99.99,,,-99.99,,2013-03-03 09:11:00,
2013-03-03 03:21:00,26.0,19.0,30.20,NNW,330,0.0,-999.0,73,-99.99,,,-99.99,,2013-03-03 09:21:00,
2013-03-03 03:32:00,26.0,19.0,30.19,NNW,330,0.0,-999.0,74,-99.99,,,-99.99,,2013-03-03 09:32:00,
2013-03-03 03:41:00,26.0,19.0,30.19,NNW,330,0.0,-999.0,74,-99.99,,,-99.99,,2013-03-03 09:41:00,
2013-03-03 03:52:00,26.0,19.0,30.19,NNW,330,0.0,-999.0,74,-99.99,,,-99.99,,2013-03-03 09:52:00,
2013-03-03 04:01:00,26.0,19.0,30.20,NNW,330,0.0,-999.0,74,-99.99,,,-99.99,,2013-03-03 10:01:00,
2013-03-03 04:11:00,26.0,19.0,30.20,NNW,330,0.0,-999.0,74,-99.99,,,-99.99,,2013-03-03 10:11:00,
2013-03-03 04:21:00,26.0,19.0,30.20,NNW,327,0.0,-999.0,74,-99.99,,,-99.99,,2013-03-03 10:21:00,
2013-03-03 04:32:00,26.0,19.0,30.20,NNW,327,0.0,-999.0,74,-99.99,,,-99.99,,2013-03-03 10:32:00,
2013-03-03 04:42:00,26.0,19.0,30.20,NNW,327,0.0,-999.0,74,-99.99,,,-99.99,,2013-03-03 10:42:00,
2013-03-03 04:52:00,25.0,18.0,30.19,NNW,327,0.0,-999.0,74,-99.99,,,-99.99,,2013-03-03 10:52:00,
2013-03-03 05:01:00,25.0,18.0,30.19,NW,326,0.0,-999.0,74,-99.99,,,-99.99,,2013-03-03 11:01:00,
2013-03-03 05:11:00,25.0,18.0,30.19,NW,326,0.0,-999.0,74,-99.99,,,-99.99,,2013-03-03 11:11:00,
2013-03-03 05:21:00,25.0,18.0,30.19,NW,326,0.0,-999.0,74,-99.99,,,-99.99,,2013-03-03 11:21:00,
2013-03-03 05:32:00,25.0,18.0,30.19,NW,326,0.0,-999.0,74,-99.99,,,-99.99,,2013-03-03 11:32:00,
2013-03-03 05:42:00,25.0,18.0,30.19,NW,326,0.0,-999.0,74,-99.99,,,-99.99,,2013-03-03 11:42:00,
2013-03-03 05:52:00,25.0,18.0,30.19,NW,326,0.0,-999.0,74,-99.99,,,-99.99,,2013-03-03 11:52:00,
2013-03-03 06:01:00,25.0,18.0,30.19,NW,326,0.0,-999.0,74,-99.99,,,-99.99,,2013-03-03 12:01:00,
2013-03-03 06:11:00,25.0,18.0,30.19,NW,326,0.0,-999.0,74,-99.99,,,-99.99,,2013-03-03 12:11:00,
2013-03-03 06:21:00,24.0,17.0,30.19,NW,326,0.0,-999.0,74,-99.99,,,-99.99,,2013-03-03 12:21:00,
2013-03-03 06:32:00,24.0,17.0,30.19,NW,326,0.0,-999.0,74,-99.99,,,-99.99,,2013-03-03 12:32:00,
2013-03-03 06:42:00,24.0,17.0,30.19,NW,326,0.0,-999.0,74,-99.99,,,-99.99,,2013-03-03 12:42:00,
2013-03-03 06:53:00,24.0,17.0,30.19,NW,326,0.0,-999.0,75,-99.99,,,-99.99,,2013-03-03 12:53:00,
2013-03-03 07:01:00,24.0,17.0,30.18,NW,326,0.0,-999.0,75,-99.99,,,-99.99,,2013-03-03 13:01:00,
2013-03-03 07:11:00,24.0,17.0,30.18,NW,326,0.0,-999.0,75,-99.99,,,-99.99,,2013-03-03 13:11:00,
2013-03-03 07:21:00,24.0,18.0,30.19,NW,326,0.0,-999.0,76,-99.99,,,-99.99,,2013-03-03 13:21:00,
2013-03-03 07:32:00,25.0,19.0,30.19,NW,326,0.0,-999.0,76,-99.99,,,-99.99,,2013-03-03 13:32:00,
2013-03-03 07:42:00,25.0,19.0,30.19,NW,326,0.0,-999.0,76,-99.99,,,-99.99,,2013-03-03 13:42:00,
2013-03-03 07:52:00,27.0,20.0,30.20,NW,326,0.0,-999.0,75,-99.99,,,-99.99,,2013-03-03 13:52:00,
2013-03-03 08:02:00,28.0,20.0,30.21,NW,310,0.0,-999.0,73,-99.99,,,-99.99,,2013-03-03 14:02:00,
2013-03-03 08:11:00,28.0,20.0,30.21,NW,310,0.0,-999.0,73,-99.99,,,-99.99,,2013-03-03 14:11:00,
2013-03-03 08:21:00,29.0,20.0,30.21,NNW,348,0.0,-999.0,70,-99.99,,,-99.99,,2013-03-03 14:21:00,
2013-03-03 08:32:00,30.0,20.0,30.21,NNW,333,0.0,-999.0,67,-99.99,,,-99.99,,2013-03-03 14:32:00,
2013-03-03 08:42:00,30.0,20.0,30.21,NNW,333,0.0,-999.0,67,-99.99,,,-99.99,,2013-03-03 14:42:00,
2013-03-03 08:52:00,31.0,20.0,30.21,NW,324,0.0,-999.0,64,-99.99,,,-99.99,,2013-03-03 14:52:00,
2013-03-03 09:01:00,31.0,20.0,30.22,NNW,330,0.0,-999.0,63,-99.99,,,-99.99,,2013-03-03 15:01:00,
2013-03-03 09:11:00,31.0,20.0,30.22,NNW,330,0.0,-999.0,63,-99.99,,,-99.99,,2013-03-03 15:11:00,
2013-03-03 09:22:00,31.0,20.0,30.21,WNW,294,0.0,-999.0,63,-99.99,,,-99.99,,2013-03-03 15:22:00,
2013-03-03 09:32:00,31.0,20.0,30.21,North,355,0.0,-999.0,64,-99.99,,,-99.99,,2013-03-03 15:32:00,
2013-03-03 09:42:00,31.0,20.0,30.21,North,355,0.0,-999.0,64,-99.99,,,-99.99,,2013-03-03 15:42:00,
2013-03-03 09:52:00,32.0,20.0,30.21,NNE,30,0.0,-999.0,60,-99.99,,,-99.99,,2013-03-03 15:52:00,
2013-03-03 10:01:00,33.0,21.0,30.21,NNW,348,0.0,-999.0,61,-99.99,,,-99.99,,2013-03-03 16:01:00,
2013-03-03 10:12:00,33.0,21.0,30.21,NNW,348,0.0,-999.0,61,-99.99,,,-99.99,,2013-03-03 16:12:00,
2013-03-03 10:21:00,33.0,20.0,30.21,NNE,17,0.0,-999.0,59,-99.99,,,-99.99,,2013-03-03 16:21:00,
2013-03-03 10:31:00,34.0,20.0,30.21,North,11,0.0,-999.0,57,-99.99,,,-99.99,,2013-03-03 16:31:00,
2013-03-03 10:42:00,34.0,20.0,30.21,North,11,0.0,-999.0,57,-99.99,,,-99.99,,2013-03-03 16:42:00,
2013-03-03 10:52:00,33.0,19.0,30.21,NW,309,0.0,-999.0,57,-99.99,,,-99.99,,2013-03-03 16:52:00,
2013-03-03 11:01:00,33.0,20.0,30.21,NW,310,0.0,-999.0,58,-99.99,,,-99.99,,2013-03-03 17:01:00,
2013-03-03 11:11:00,34.0,19.0,30.20,WNW,294,1.0,-999.0,53,-99.99,,,-99.99,,2013-03-03 17:11:00,
2013-03-03 11:22:00,34.0,19.0,30.20,WNW,294,1.0,-999.0,53,-99.99,,,-99.99,,2013-03-03 17:22:00,
2013-03-03 11:32:00,34.0,18.0,30.20,West,267,1.0,-999.0,51,-99.99,,,-99.99,,2013-03-03 17:32:00,
2013-03-03 11:42:00,34.0,18.0,30.20,West,267,1.0,-999.0,51,-99.99,,,-99.99,,2013-03-03 17:42:00,
2013-03-03 11:52:00,35.0,20.0,30.19,West,281,1.0,-999.0,53,-99.99,,,-99.99,,2013-03-03 17:52:00,
2013-03-03 12:01:00,35.0,20.0,30.19,WNW,288,1.0,-999.0,54,-99.99,,,-99.99,,2013-03-03 18:01:00,
2013-03-03 12:11:00,35.0,20.0,30.19,WNW,288,1.0,-999.0,54,-99.99,,,-99.99,,2013-03-03 18:11:00,
2013-03-03 12:21:00,36.0,21.0,30.18,WNW,286,1.0,-999.0,53,-99.99,,,-99.99,,2013-03-03 18:21:00,
2013-03-03 12:32:00,36.0,21.0,30.18,WSW,244,2.0,-999.0,53,-99.99,,,-99.99,,2013-03-03 18:32:00,
2013-03-03 12:42:00,36.0,21.0,30.18,WSW,244,2.0,-999.0,53,-99.99,,,-99.99,,2013-03-03 18:42:00,
2013-03-03 12:52:00,36.0,21.0,30.17,SSW,205,2.0,-999.0,53,-99.99,,,-99.99,,2013-03-03 18:52:00,
2013-03-03 13:01:00,37.0,21.0,30.17,North,360,1.0,-999.0,53,-99.99,,,-99.99,,2013-03-03 19:01:00,
2013-03-03 13:11:00,37.0,21.0,30.17,North,360,1.0,-999.0,53,-99.99,,,-99.99,,2013-03-03 19:11:00,
2013-03-03 13:21:00,38.0,22.0,30.15,SSW,213,1.0,-999.0,51,-99.99,,,-99.99,,2013-03-03 19:21:00,
2013-03-03 13:32:00,38.0,22.0,30.14,SW,234,0.0,-999.0,52,-99.99,,,-99.99,,2013-03-03 19:32:00,
2013-03-03 13:42:00,38.0,22.0,30.14,SW,234,0.0,-999.0,52,-99.99,,,-99.99,,2013-03-03 19:42:00,
2013-03-03 13:52:00,39.0,22.0,30.13,South,171,0.0,-999.0,50,-99.99,,,-99.99,,2013-03-03 19:52:00,
2013-03-03 14:01:00,39.0,22.0,30.13,SSE,153,1.0,-999.0,51,-99.99,,,-99.99,,2013-03-03 20:01:00,
2013-03-03 14:11:00,39.0,22.0,30.13,SSE,153,1.0,-999.0,51,-99.99,,,-99.99,,2013-03-03 20:11:00,
2013-03-03 14:21:00,39.0,21.0,30.11,WNW,299,1.0,-999.0,49,-99.99,,,-99.99,,2013-03-03 20:21:00,
2013-03-03 14:32:00,40.0,20.0,30.11,WSW,246,1.0,-999.0,44,-99.99,,,-99.99,,2013-03-03 20:32:00,
2013-03-03 14:42:00,40.0,20.0,30.11,WSW,246,1.0,-999.0,44,-99.99,,,-99.99,,2013-03-03 20:42:00,
2013-03-03 14:53:00,41.0,22.0,30.11,SE,136,1.0,-999.0,47,-99.99,,,-99.99,,2013-03-03 20:53:00,
2013-03-03 15:01:00,41.0,22.0,30.11,SW,221,0.0,-999.0,47,-99.99,,,-99.99,,2013-03-03 21:01:00,
2013-03-03 15:11:00,41.0,22.0,30.11,SW,221,0.0,-999.0,47,-99.99,,,-99.99,,2013-03-03 21:11:00,
2013-03-03 15:22:00,42.0,24.0,30.10,SSW,207,1.0,-999.0,48,-99.99,,,-99.99,,2013-03-03 21:22:00,
2013-03-03 15:32:00,41.0,21.0,30.10,SW,236,2.0,-999.0,45,-99.99,,,-99.99,,2013-03-03 21:32:00,
2013-03-03 15:42:00,41.0,21.0,30.10,SW,236,2.0,-999.0,45,-99.99,,,-99.99,,2013-03-03 21:42:00,
2013-03-03 15:52:00,42.0,22.0,30.09,SW,223,1.0,-999.0,44,-99.99,,,-99.99,,2013-03-03 21:52:00,
2013-03-03 16:01:00,42.0,22.0,30.09,SSW,207,1.0,-999.0,45,-99.99,,,-99.99,,2013-03-03 22:01:00,
2013-03-03 16:11:00,42.0,22.0,30.09,SSW,207,1.0,-999.0,45,-99.99,,,-99.99,,2013-03-03 22:11:00,
2013-03-03 16:22:00,43.0,24.0,30.09,SSW,213,1.0,-999.0,47,-99.99,,,-99.99,,2013-03-03 22:22:00,
2013-03-03 16:32:00,43.0,24.0,30.08,SW,214,1.0,-999.0,47,-99.99,,,-99.99,,2013-03-03 22:32:00,
2013-03-03 16:42:00,43.0,24.0,30.08,SW,214,1.0,-999.0,47,-99.99,,,-99.99,,2013-03-03 22:42:00,
2013-03-03 16:52:00,43.0,23.0,30.07,South,176,1.0,-999.0,45,-99.99,,,-99.99,,2013-03-03 22:52:00,
2013-03-03 17:01:00,42.0,23.0,30.07,SE,141,1.0,-999.0,46,-99.99,,,-99.99,,2013-03-03 23:01:00,
2013-03-03 17:11:00,42.0,23.0,30.07,SE,141,1.0,-999.0,46,-99.99,,,-99.99,,2013-03-03 23:11:00,
2013-03-03 17:21:00,42.0,24.0,30.07,SSE,164,1.0,-999.0,48,-99.99,,,-99.99,,2013-03-03 23:21:00,
2013-03-03 17:31:00,42.0,24.0,30.08,South,178,1.0,-999.0,49,-99.99,,,-99.99,,2013-03-03 23:31:00,
2013-03-03 17:42:00,42.0,24.0,30.08,South,178,1.0,-999.0,49,-99.99,,,-99.99,,2013-03-03 23:42:00,
2013-03-03 17:52:00,41.0,24.0,30.07,SSW,194,1.0,-999.0,50,-99.99,,,-99.99,,2013-03-03 23:52:00,
2013-03-03 18:01:00,41.0,24.0,30.07,SW,214,1.0,-999.0,50,-99.99,,,-99.99,,2013-03-04 00:01:00,
2013-03-03 18:11:00,41.0,24.0,30.07,SW,214,1.0,-999.0,50,-99.99,,,-99.99,,2013-03-04 00:11:00,
2013-03-03 18:21:00,41.0,26.0,30.06,SSE,163,0.0,-999.0,54,-99.99,,,-99.99,,2013-03-04 00:21:00,
2013-03-03 18:32:00,41.0,27.0,30.06,SSE,157,0.0,-999.0,56,-99.99,,,-99.99,,2013-03-04 00:32:00,
2013-03-03 18:42:00,41.0,27.0,30.06,SSE,157,0.0,-999.0,56,-99.99,,,-99.99,,2013-03-04 00:42:00,
2013-03-03 18:52:00,40.0,26.0,30.06,SE,142,0.0,-999.0,57,-99.99,,,-99.99,,2013-03-04 00:52:00,
2013-03-03 19:01:00,40.0,26.0,30.06,SE,142,0.0,-999.0,58,-99.99,,,-99.99,,2013-03-04 01:01:00,
2013-03-03 19:11:00,40.0,26.0,30.06,SE,142,0.0,-999.0,58,-99.99,,,-99.99,,2013-03-04 01:11:00,
2013-03-03 19:21:00,40.0,26.0,30.06,SE,136,0.0,-999.0,57,-99.99,,,-99.99,,2013-03-04 01:21:00,
2013-03-03 19:32:00,40.0,26.0,30.06,SE,136,0.0,-999.0,57,-99.99,,,-99.99,,2013-03-04 01:32:00,
2013-03-03 19:42:00,40.0,26.0,30.06,SE,136,0.0,-999.0,57,-99.99,,,-99.99,,2013-03-04 01:42:00,
2013-03-03 19:52:00,40.0,26.0,30.06,SE,128,0.0,-999.0,58,-99.99,,,-99.99,,2013-03-04 01:52:00,
2013-03-03 20:01:00,40.0,27.0,30.06,SE,128,0.0,-999.0,59,-99.99,,,-99.99,,2013-03-04 02:01:00,
2013-03-03 20:11:00,40.0,27.0,30.06,SE,128,0.0,-999.0,59,-99.99,,,-99.99,,2013-03-04 02:11:00,
2013-03-03 20:22:00,39.0,26.0,30.07,SE,128,0.0,-999.0,60,-99.99,,,-99.99,,2013-03-04 02:22:00,
2013-03-03 20:32:00,40.0,26.0,30.07,SE,128,0.0,-999.0,58,-99.99,,,-99.99,,2013-03-04 02:32:00,
2013-03-03 20:42:00,40.0,26.0,30.07,SE,128,0.0,-999.0,58,-99.99,,,-99.99,,2013-03-04 02:42:00,
2013-03-03 20:52:00,40.0,26.0,30.07,ESE,105,0.0,-999.0,57,-99.99,,,-99.99,,2013-03-04 02:52:00,
2013-03-03 21:01:00,40.0,26.0,30.07,East,97,0.0,-999.0,58,-99.99,,,-99.99,,2013-03-04 03:01:00,
2013-03-03 21:11:00,40.0,26.0,30.07,East,97,0.0,-999.0,58,-99.99,,,-99.99,,2013-03-04 03:11:00,
2013-03-03 21:21:00,40.0,26.0,30.06,East,96,0.0,-999.0,56,-99.99,,,-99.99,,2013-03-04 03:21:00,
2013-03-03 21:32:00,40.0,25.0,30.06,East,98,0.0,-999.0,55,-99.99,,,-99.99,,2013-03-04 03:32:00,
2013-03-03 21:42:00,39.0,24.0,30.06,East,98,0.0,-999.0,54,-99.99,,,-99.99,,2013-03-04 03:42:00,
2013-03-03 21:52:00,39.0,24.0,30.06,East,98,0.0,-999.0,54,-99.99,,,-99.99,,2013-03-04 03:52:00,
2013-03-03 22:01:00,39.0,24.0,30.07,East,98,0.0,-999.0,54,-99.99,,,-99.99,,2013-03-04 04:01:00,
2013-03-03 22:11:00,39.0,24.0,30.07,East,98,0.0,-999.0,54,-99.99,,,-99.99,,2013-03-04 04:11:00,
2013-03-03 22:22:00,39.0,23.0,30.06,ESE,102,0.0,-999.0,53,-99.99,,,-99.99,,2013-03-04 04:22:00,
2013-03-03 22:32:00,39.0,23.0,30.07,East,98,0.0,-999.0,53,-99.99,,,-99.99,,2013-03-04 04:32:00,
2013-03-03 22:42:00,39.0,23.0,30.07,East,98,0.0,-999.0,53,-99.99,,,-99.99,,2013-03-04 04:42:00,
2013-03-03 22:52:00,39.0,23.0,30.07,East,99,0.0,-999.0,53,-99.99,,,-99.99,,2013-03-04 04:52:00,
2013-03-03 23:01:00,39.0,24.0,30.06,East,101,0.0,-999.0,55,-99.99,,,-99.99,,2013-03-04 05:01:00,
2013-03-03 23:11:00,39.0,24.0,30.06,East,101,0.0,-999.0,55,-99.99,,,-99.99,,2013-03-04 05:11:00,
2013-03-03 23:22:00,39.0,24.0,30.05,ESE,103,0.0,-999.0,55,-99.99,,,-99.99,,2013-03-04 05:22:00,
2013-03-03 23:31:00,38.0,24.0,30.04,ESE,102,0.0,-999.0,56,-99.99,,,-99.99,,2013-03-04 05:31:00,
2013-03-03 23:42:00,38.0,24.0,30.04,ESE,102,0.0,-999.0,56,-99.99,,,-99.99,,2013-03-04 05:42:00,
2013-03-03 23:52:00,38.0,25.0,30.04,SE,126,1.0,-999.0,59,-99.99,,,-99.99,,2013-03-04 05:52:00,